Temperature
13 13 13 13 13 13 13 13 13 13 13 12 12 12 12 12 12 12 12 12 12 12 12 12 12 12 12 12 12 12 12 12 12 12 11 11 11 11 11 11 11 11 11
13 13 13 13 13 13 12 12 12 12 12 12 12 12 12 12 12 12 12 12 12 12 12 12 11 11 11 11 11 11 11 11 11 11 11 11 11 11 11 11 11 11 11
12 13 13 12 12 12 12 12 12 12 12 12 12 12 12 12 12 12 11 11 11 11 11 11 11 11 11 11 11 11 11 11 11 11 11 11 11 10 10 10 10 10 10
12 12 12 12 12 12 12 12 12 12 12 12 11 11 11 11 11 11 11 11 11 11 11 11 11 11 11 10 10 10 10 10 10 10 10 10 10 10 10 10 10 10 10
12 12 12 12 12 12 11 11 11 11 11 11 11 11 11 11 11 11 10 10 10 10 10 10 10 10 10 10 10 10 10 10 10 10 10 10 10 10 10 10 10 9 9
12 11 11 12 11 11 11 11 11 11 11 11 11 11 10 10 10 10 10 10 10 10 10 10 10 10 10 10 10 10 10 10 10 9 9 9 9 9 9 9 9 9 9
11 11 11 11 11 11 11 11 11 10 10 10 10 10 10 9 9 9 10 10 10 10 10 9 9 9 9 9 9 9 9 9 9 9 9 9 9 9 9 9 8 8 8
11 11 11 11 11 11 10 10 10 10 10 10 10 9 9 9 9 9 9 9 9 9 9 9 9 9 9 9 9 9 9 9 9 9 9 8 8 8 8 8 8 8 8
10 11 11 11 10 11 10 10 10 10 10 10 9 9 9 8 8 8 8 8 8 9 9 9 9 9 9 9 8 8 8 8 8 8 8 8 8 8 8 8 7 7 7
10 10 10 10 10 10 10 10 10 10 10 9 9 9 9 9 8 7 8 8 8 8 8 8 8 8 8 8 8 8 8 8 8 8 8 8 8 7 7 7 7 7 7
10 10 10 10 10 10 10 10 9 9 9 9 9 9 9 9 8 8 7 7 8 8 8 8 8 8 8 8 7 7 7 7 7 7 7 7 7 7 7 7 6 6 6
9 9 9 9 9 9 9 9 9 9 9 9 8 8 8 8 8 8 7 7 7 7 7 7 7 7 7 7 7 7 7 7 7 7 7 7 7 6 6 6 6 6 6
9 9 9 9 9 9 9 9 8 8 8 8 8 8 8 8 8 7 7 6 6 6 7 7 7 7 7 6 7 7 6 6 6 6 6 6 6 6 6 6 6 5 5
9 9 9 9 9 8 8 8 8 8 8 8 8 8 8 7 7 7 7 6 6 5 6 6 6 6 6 6 6 6 6 6 6 6 6 6 6 5 5 5 5 5 5
8 8 8 8 8 8 8 8 8 8 7 7 7 7 7 7 7 6 6 6 5 5 5 5 5 6 5 5 5 5 5 5 5 5 5 5 5 5 5 5 5 5 4
8 7 7 7 7 7 7 7 7 7 7 7 7 7 6 6 6 6 6 5 5 5 5 5 5 5 5 5 5 5 5 5 5 5 5 5 4 4 4 4 4 4 4
7 7 7 7 7 7 7 7 7 6 6 6 6 6 6 6 5 5 5 5 5 5 4 4 4 4 4 4 4 4 4 4 4 4 4 4 4 4 4 4 4 3 3
7 7 7 6 6 6 6 6 6 6 6 6 6 5 5 5 5 5 5 5 4 4 4 4 4 4 4 4 4 4 3 3 3 3 3 3 3 3 3 3 3 3 3
6 6 6 6 6 6 6 6 5 5 5 5 5 5 5 5 5 4 4 4 4 4 3 3 3 3 3 3 3 3 3 3 3 3 3 3 3 2 2 2 2 2 2
6 6 6 6 5 5 5 5 5 5 5 5 5 5 4 4 4 4 4 3 3 3 3 2 2 3 2 2 2 2 2 2 2 2 2 2 2 2 2 2 2 2 2
5 5 5 5 5 5 5 5 5 4 4 4 4 4 4 4 3 3 3 3 2 2 2 2 2 2 2 2 2 1 1 1 2 1 1 1 1 1 1 1 1 1 1
5 5 5 5 5 5 4 4 4 4 4 4 4 3 3 3 3 3 2 2 2 2 2 1 1 1 2 1 1 1 1 1 1 1 1 1 1 1 1 1 1 1 1
4 4 4 4 4 4 4 4 3 3 3 3 3 3 3 2 2 2 2 2 1 1 1 1 1 1 1 1 1 0 0 -0 -0 0 -0 0 0 0 0 0 0 0 0
4 4 4 4 3 3 3 3 3 3 3 3 2 2 2 2 2 1 1 1 1 1 1 0 0 0 0 0 0 -0 -0 -1 -0 -0 -1 -1 -0 -1 -1 -1 -0 -0 -1
3 3 3 3 3 3 3 3 2 2 2 2 2 2 1 1 1 1 0 0 0 0 0 0 -0 -0 -0 -0 -1 -1 -1 -1 -1 -1 -1 -2 -1 -1 -1 -1 -1 -1 -1
2 2 2 2 2 2 2 2 1 1 1 1 1 1 1 1 0 0 -0 -0 -0 -0 -0 -0 -0 -0 -1 -1 -1 -1 -1 -2 -2 -2 -2 -2 -2 -3 -3 -2 -2 -2 -2
Wind_Speed
6 6 6 6 6 6 6 5 5 6 6 6 6 6 7 7 8 7 7 7 7 6 5 5 5 5 5 5 5 6 6 6 6 6 6 6 5 6 6 6 6 6 6
7 7 6 6 6 6 6 6 5 5 5 5 5 6 7 7 8 8 7 7 8 7 6 6 6 5 6 6 5 5 6 6 6 5 5 4 5 4 5 5 5 5 6
9 8 6 5 6 7 7 7 6 6 5 5 5 5 6 7 7 7 7 7 7 7 7 7 6 6 5 5 5 5 5 5 4 4 4 3 4 4 4 5 5 5 5
11 9 7 5 7 7 6 5 4 4 4 4 4 3 4 6 7 7 7 7 6 6 7 7 6 5 5 4 4 4 3 3 3 2 2 2 2 3 4 4 5 5 5
11 9 7 7 8 6 5 4 4 4 4 3 3 3 3 4 5 6 6 6 6 5 5 5 6 5 5 4 2 2 2 1 1 1 2 2 2 2 3 3 4 5 5
10 9 7 8 8 5 3 4 4 3 3 3 4 4 3 3 4 4 4 5 5 5 4 4 4 4 5 4 3 2 1 1 1 1 1 1 1 2 3 3 4 4 5
10 10 7 7 6 5 4 5 5 5 3 3 4 3 4 4 3 2 3 4 4 4 4 3 3 3 3 4 4 3 2 2 2 1 1 2 2 2 3 3 4 5 6
10 9 8 6 6 5 5 5 5 4 2 2 3 3 2 2 3 3 2 2 2 3 3 2 2 2 2 2 2 3 4 3 4 3 3 3 3 4 4 4 5 6 6
9 9 9 7 6 6 6 5 5 5 3 1 1 3 3 2 1 2 2 2 2 2 2 2 2 2 2 1 2 3 4 5 5 5 5 5 5 5 5 6 6 6 7
8 9 9 8 6 5 6 5 4 3 4 3 1 1 1 3 3 1 1 2 2 1 1 1 2 2 2 2 2 3 5 5 5 6 6 6 6 6 6 6 7 7 8
6 7 8 7 6 5 5 5 4 4 3 3 2 1 1 1 2 2 1 1 2 2 1 1 1 1 2 2 2 5 6 6 6 7 7 6 6 6 6 6 7 7 8
4 5 7 6 6 5 5 5 4 4 3 3 2 2 2 2 2 2 2 2 2 2 2 1 1 2 2 2 4 6 6 6 7 8 9 8 7 7 7 7 8 8 9
3 5 5 5 5 5 5 5 4 4 4 4 3 2 2 2 2 2 2 1 1 2 2 2 2 2 2 3 4 6 6 7 8 8 9 8 7 7 8 8 9 9 10
5 5 5 5 5 5 5 4 3 3 3 3 3 2 2 2 2 2 3 2 1 2 2 3 2 3 3 4 5 6 7 8 9 9 10 9 8 8 8 9 9 10 11
4 5 5 5 4 4 4 4 3 3 3 2 2 2 1 1 1 1 2 3 3 3 4 4 2 2 4 4 6 7 8 9 10 10 10 10 9 8 9 10 10 11 11
5 6 5 5 4 4 4 4 3 3 3 2 2 2 2 1 1 1 2 2 3 4 4 3 3 3 4 6 8 8 9 10 11 10 10 10 10 9 10 11 11 11 12
6 6 6 5 5 4 4 4 4 4 4 3 2 3 3 2 2 2 2 2 2 3 4 4 2 3 2 4 6 7 8 9 10 11 11 11 10 10 11 12 12 12 12
6 6 6 5 5 5 4 5 5 4 5 4 4 3 3 2 2 2 2 3 3 3 3 5 4 3 4 4 4 5 7 8 9 10 11 11 11 11 11 12 13 13 13
5 5 6 6 5 5 5 5 5 5 5 5 5 5 4 3 3 3 3 3 3 3 3 4 5 3 3 3 4 5 5 6 8 10 11 11 12 12 13 13 13 14 14
6 6 5 5 5 5 5 5 5 5 4 4 4 5 5 5 5 4 3 4 3 3 3 3 4 4 4 3 3 4 5 4 5 8 10 10 12 12 13 13 14 14 14
5 5 5 5 4 5 5 5 5 5 5 4 4 4 4 6 7 5 4 4 4 3 3 3 4 4 4 3 4 3 5 5 5 4 4 6 7 7 10 12 13 13 14
4 4 4 5 4 4 6 6 5 4 5 5 4 4 4 5 6 7 7 7 6 5 5 5 5 6 6 5 4 4 4 5 5 3 3 6 4 5 7 9 12 14 15
4 4 4 4 4 5 6 6 6 4 5 5 5 4 4 4 5 3 5 7 7 9 9 7 7 7 7 6 5 5 5 5 6 4 4 7 4 5 7 10 13 14 14
4 4 4 4 4 5 5 5 4 3 4 4 5 5 5 4 4 4 3 4 5 5 7 6 7 8 7 6 6 6 6 5 5 4 3 5 5 5 6 9 13 13 12
3 3 3 4 4 4 5 5 4 2 3 4 4 4 5 5 7 7 4 4 5 5 7 9 10 10 11 11 8 4 3 4 6 5 2 3 4 5 5 6 9 11 12
3 3 2 3 4 4 5 5 5 3 3 3 3 4 6 7 8 8 5 5 6 6 5 4 5 7 7 8 9 6 5 5 5 5 3 2 3 3 4 4 4 7 8
Wind_Direction
145 143 136 127 122 119 116 107 102 98 89 87 93 105 103 104 105 102 94 88 89 95 101 106 114 111 115 117 120 113 105 99 88 77 75 69 60 52 42 39 35 32 26
145 146 140 133 125 122 120 115 109 101 92 91 83 91 97 102 104 103 98 88 79 77 81 87 95 101 105 100 104 112 105 97 85 75 71 64 54 45 35 28 23 22 22
146 145 143 139 132 127 119 108 99 93 93 89 81 80 91 96 100 102 100 96 85 73 72 74 76 80 86 98 100 98 103 96 88 77 69 61 48 40 31 25 21 20 16
149 142 139 138 130 122 115 118 114 107 94 89 83 72 83 93 95 100 97 95 92 84 75 68 62 66 69 74 95 98 100 102 92 75 56 43 33 22 19 18 19 18 15
149 143 140 135 128 119 120 130 123 122 111 94 89 74 63 81 92 100 94 94 92 87 83 74 63 55 57 50 52 108 95 79 85 40 20 15 18 19 13 8 9 8 3
145 139 135 131 127 121 119 128 123 108 116 114 95 70 46 58 78 89 98 96 93 84 79 76 65 48 41 33 21 22 57 359 360 340 327 346 355 354 346 349 352 344 341
146 139 136 133 133 130 134 134 127 116 99 106 92 67 33 35 54 60 83 89 82 81 77 71 65 48 21 7 358 2 347 337 311 291 306 310 311 317 321 328 330 329 327
149 144 142 143 140 131 130 133 129 124 113 106 116 111 76 11 11 16 42 80 74 72 69 71 74 42 9 355 335 340 336 314 301 276 271 279 285 293 300 309 311 315 319
146 144 143 141 142 140 150 150 142 138 146 128 102 132 141 190 258 338 6 35 61 53 41 44 48 17 355 314 308 317 321 316 311 294 278 278 281 285 292 296 298 305 311
143 144 144 142 144 142 150 159 147 143 145 154 125 54 131 150 153 189 338 0 9 8 349 7 12 358 357 345 324 318 315 304 306 307 290 283 284 286 292 300 301 302 305
141 146 148 146 147 146 155 157 149 146 148 157 162 145 102 76 112 153 220 286 333 310 298 301 301 305 322 332 336 325 316 304 299 305 297 285 286 292 298 304 308 310 308
139 143 146 148 150 153 160 162 156 155 161 158 166 165 161 162 173 156 195 236 266 284 298 286 268 271 284 307 318 320 318 314 308 308 306 292 289 293 298 302 305 308 309
149 159 149 151 154 158 159 153 152 165 166 166 175 185 182 191 171 160 168 211 251 284 302 293 268 259 271 297 309 316 312 309 309 311 311 304 301 298 296 297 301 304 305
160 156 147 148 151 154 157 152 150 166 162 170 176 173 177 198 179 178 174 175 246 276 266 269 293 261 276 293 298 310 308 305 305 308 312 309 302 300 297 297 299 301 302
149 147 147 149 148 153 155 149 156 164 163 175 179 175 184 211 190 191 183 186 190 239 257 247 258 273 274 290 296 299 298 300 300 299 301 300 295 294 294 295 295 297 296
151 153 155 159 158 158 158 153 158 162 161 172 167 166 185 211 197 203 201 212 211 221 251 240 245 275 287 288 291 291 290 297 296 294 293 292 289 291 292 292 292 292 292
158 164 168 170 172 171 167 167 172 170 172 180 182 185 202 199 198 219 215 210 220 217 248 274 267 282 276 285 296 291 288 289 289 287 288 287 285 287 289 290 291 291 292
163 168 168 173 179 180 180 182 186 188 189 194 201 199 215 212 211 226 222 222 229 224 231 262 281 283 275 274 279 287 289 289 289 289 288 286 282 283 287 289 289 289 290
167 170 173 180 185 187 189 194 194 197 202 206 205 207 216 210 227 237 236 237 243 245 235 247 274 283 285 284 288 290 289 292 292 292 289 287 286 285 286 287 287 288 287
173 180 184 188 191 192 194 195 194 197 204 213 215 216 218 217 222 225 235 231 231 238 241 250 270 282 285 285 278 286 295 290 292 297 287 287 290 289 286 286 287 288 287
178 181 183 190 194 196 199 195 195 197 201 211 223 227 228 229 231 232 238 229 217 228 241 253 265 280 283 286 278 276 286 295 290 285 283 288 291 291 290 286 287 288 287
175 176 188 194 202 212 211 209 205 199 203 209 224 236 237 238 241 249 253 251 236 231 234 244 258 262 270 269 274 276 284 294 292 280 279 288 287 285 289 281 283 288 289
173 182 197 198 210 219 217 217 218 207 207 216 222 229 246 247 253 242 258 266 262 256 247 240 245 253 260 257 259 272 269 269 274 281 289 289 286 282 286 285 289 289 288
178 189 202 205 209 221 220 224 227 217 214 224 226 224 228 240 237 240 242 256 263 265 257 250 242 247 249 247 244 253 259 268 274 274 259 278 287 284 290 285 284 284 285
181 194 199 201 207 225 226 230 236 215 225 237 236 228 227 234 249 257 253 255 270 274 272 264 262 263 267 269 265 260 261 273 285 283 243 249 281 295 288 278 277 280 284
186 191 211 215 213 224 235 237 237 212 228 248 255 246 246 246 253 256 249 242 258 268 268 276 272 274 271 266 263 247 235 254 277 279 241 239 278 302 296 274 277 285 287
Height
1525 1528 1530 1532 1534 1536 1538 1539 1541 1542 1544 1545 1546 1547 1548 1549 1550 1551 1552 1552 1553 1553 1554 1554 1554 1554 1555 1555 1555 1555 1555 1555 1555 1555 1554 1554 1554 1554 1553 1553 1552 1551 1550
1524 1526 1528 1530 1533 1535 1537 1539 1540 1541 1543 1545 1545 1546 1548 1549 1550 1550 1551 1552 1552 1552 1553 1553 1553 1553 1554 1554 1554 1554 1554 1554 1554 1554 1553 1553 1553 1553 1552 1552 1551 1550 1549
1522 1524 1526 1529 1531 1533 1536 1538 1539 1541 1542 1543 1544 1546 1547 1548 1549 1550 1550 1551 1551 1552 1552 1552 1553 1553 1553 1553 1553 1553 1553 1553 1553 1552 1552 1552 1551 1551 1551 1550 1550 1549 1548
1520 1522 1524 1527 1529 1532 1534 1536 1538 1540 1541 1542 1543 1545 1546 1547 1548 1549 1549 1550 1550 1551 1551 1551 1551 1552 1551 1551 1551 1551 1551 1551 1551 1551 1551 1550 1550 1549 1549 1549 1548 1547 1546
1518 1520 1523 1525 1528 1530 1533 1534 1536 1538 1539 1541 1543 1544 1545 1546 1546 1547 1548 1549 1549 1549 1550 1550 1550 1550 1550 1550 1550 1550 1550 1550 1550 1549 1549 1548 1548 1548 1547 1547 1546 1545 1544
1516 1518 1521 1523 1526 1529 1531 1533 1534 1537 1538 1540 1541 1542 1544 1544 1545 1546 1546 1547 1547 1548 1548 1548 1548 1548 1548 1548 1548 1548 1548 1548 1548 1547 1547 1546 1546 1545 1545 1544 1543 1543 1542
1514 1516 1519 1521 1524 1527 1529 1531 1533 1535 1537 1538 1539 1540 1542 1543 1543 1544 1545 1545 1545 1546 1546 1546 1546 1546 1546 1546 1546 1546 1546 1546 1545 1545 1545 1544 1544 1543 1542 1542 1541 1540 1539
1511 1514 1517 1520 1522 1525 1528 1530 1531 1533 1535 1537 1538 1538 1540 1542 1542 1543 1543 1543 1544 1544 1544 1544 1544 1544 1544 1544 1544 1544 1543 1543 1543 1542 1542 1542 1541 1540 1540 1539 1538 1537 1536
1509 1512 1515 1518 1520 1523 1525 1528 1529 1531 1533 1535 1536 1538 1538 1538 1539 1540 1540 1541 1541 1541 1542 1542 1542 1542 1542 1542 1542 1542 1541 1540 1540 1540 1539 1539 1538 1537 1536 1536 1535 1534 1533
1507 1510 1513 1516 1518 1521 1523 1526 1528 1530 1531 1533 1534 1535 1536 1536 1537 1537 1538 1538 1539 1539 1539 1539 1539 1539 1539 1539 1539 1539 1538 1538 1537 1536 1536 1535 1535 1534 1533 1532 1531 1530 1529
1506 1509 1511 1514 1516 1519 1522 1524 1526 1527 1529 1531 1532 1533 1533 1534 1534 1534 1534 1535 1536 1536 1536 1536 1536 1537 1537 1536 1536 1536 1535 1534 1534 1533 1532 1532 1531 1530 1530 1528 1527 1526 1526
1504 1507 1509 1512 1514 1517 1519 1521 1523 1525 1526 1528 1529 1530 1531 1531 1530 1531 1530 1531 1531 1532 1533 1533 1533 1533 1533 1533 1533 1532 1532 1531 1530 1529 1528 1528 1527 1526 1525 1525 1524 1523 1522
1501 1504 1507 1509 1512 1514 1516 1518 1520 1522 1523 1525 1526 1527 1528 1528 1528 1528 1528 1528 1528 1528 1529 1529 1530 1530 1530 1529 1529 1529 1528 1527 1526 1525 1525 1523 1522 1522 1521 1520 1519 1518 1517
1499 1502 1504 1507 1509 1511 1513 1515 1517 1519 1520 1522 1523 1524 1524 1525 1525 1525 1525 1525 1524 1524 1524 1525 1526 1526 1526 1526 1525 1525 1524 1523 1522 1521 1520 1519 1518 1517 1516 1515 1514 1514 1513
1497 1500 1502 1504 1507 1509 1511 1512 1514 1515 1517 1518 1519 1520 1521 1522 1522 1522 1523 1523 1523 1520 1519 1520 1521 1521 1522 1522 1521 1520 1519 1518 1518 1517 1515 1514 1513 1512 1512 1511 1510 1509 1508
1495 1497 1500 1502 1504 1506 1508 1509 1511 1512 1514 1515 1516 1517 1518 1518 1519 1519 1519 1520 1520 1519 1516 1515 1517 1517 1517 1517 1517 1516 1515 1514 1512 1511 1510 1509 1507 1507 1506 1505 1504 1503 1502
1492 1495 1497 1499 1501 1503 1504 1506 1507 1509 1510 1511 1512 1514 1514 1515 1515 1515 1515 1515 1516 1515 1512 1511 1512 1512 1512 1512 1511 1511 1510 1508 1507 1506 1505 1504 1502 1501 1500 1499 1498 1497 1496
1489 1492 1494 1496 1498 1500 1501 1503 1504 1506 1507 1508 1509 1510 1510 1511 1511 1511 1511 1511 1511 1510 1509 1507 1506 1507 1507 1507 1506 1505 1504 1503 1502 1500 1499 1498 1497 1495 1494 1493 1492 1491 1490
1486 1489 1491 1492 1494 1496 1498 1499 1500 1502 1503 1504 1505 1506 1506 1507 1506 1507 1506 1506 1506 1506 1505 1503 1502 1502 1502 1502 1501 1500 1499 1498 1496 1495 1494 1493 1491 1490 1488 1487 1486 1485 1484
1483 1485 1487 1489 1490 1492 1494 1495 1496 1498 1499 1500 1501 1501 1502 1502 1502 1502 1501 1501 1501 1501 1500 1499 1498 1497 1497 1497 1496 1494 1493 1492 1491 1490 1488 1487 1485 1484 1482 1481 1480 1479 1477
1480 1482 1484 1485 1487 1489 1490 1491 1492 1493 1495 1495 1496 1497 1497 1497 1497 1497 1497 1496 1496 1496 1495 1494 1493 1492 1492 1491 1490 1489 1487 1486 1484 1484 1482 1481 1479 1477 1476 1475 1473 1472 1471
1477 1478 1480 1482 1483 1485 1486 1487 1488 1489 1490 1491 1491 1492 1492 1492 1492 1492 1492 1492 1492 1492 1491 1490 1489 1487 1487 1487 1486 1484 1483 1481 1478 1479 1476 1474 1473 1471 1470 1468 1467 1466 1464
1473 1474 1476 1478 1479 1481 1482 1483 1484 1485 1485 1486 1486 1487 1487 1487 1487 1487 1486 1486 1486 1486 1486 1486 1484 1483 1482 1482 1481 1479 1478 1476 1474 1473 1471 1467 1467 1465 1464 1462 1461 1459 1458
1469 1471 1472 1474 1475 1476 1478 1478 1479 1480 1480 1481 1481 1482 1481 1481 1482 1482 1481 1480 1480 1480 1480 1480 1479 1478 1477 1477 1476 1475 1473 1471 1469 1468 1467 1463 1460 1459 1457 1456 1455 1453 1452
1466 1467 1469 1470 1471 1472 1473 1474 1475 1475 1475 1476 1476 1476 1476 1476 1476 1477 1476 1475 1474 1474 1475 1474 1473 1473 1472 1471 1470 1469 1467 1466 1462 1461 1461 1458 1455 1453 1450 1449 1449 1447 1446
1462 1464 1465 1466 1467 1467 1469 1469 1470 1470 1470 1470 1470 1471 1471 1471 1471 1472 1471 1470 1469 1468 1468 1468 1467 1467 1466 1465 1464 1464 1462 1460 1458 1455 1454 1453 1450 1449 1444 1442 1442 1441 1439